Hourly Data Report for November 15, 2003

TORONTO CITY
ONTARIO

43°40'00.000" N
79°24'00.000" W
112.50 m
6158355
71508
XTO

Download Data

Hourly Data (November 2003)
Hourly Data Report for November 15, 2003
TIME
LST
Temp Definition
°C
Dew Point Definition
°C
Rel Hum Definition
%
Precip. Amount Definition
mm

Wind Dir Definition
10's deg

Wind Spd Definition
km/h
Visibility Definition
km
Stn Press Definition
kPa
Hmdx Definition


Wind Chill Definition


Weather Definition


00:00 1.6 -1.1 82   LegendMM LegendMM LegendMM 100.35     LegendNANA
01:00 1.6 -1.6 79   LegendMM LegendMM LegendMM 100.37     LegendNANA
02:00 1.2 -1.6 82   LegendMM LegendMM LegendMM 100.41     LegendNANA
03:00 0.6 -2.2 81   LegendMM LegendMM LegendMM 100.45     LegendNANA
04:00 0.2 -2.4 83   LegendMM LegendMM LegendMM 100.50     LegendNANA
05:00 0.7 -2.3 80   LegendMM LegendMM LegendMM 100.50     LegendNANA
06:00 0.2 -3.8 74   LegendMM LegendMM LegendMM 100.53     LegendNANA
07:00 0.8 -2.2 80   LegendMM LegendMM LegendMM 100.58     LegendNANA
08:00 1.5 -1.3 82   LegendMM LegendMM LegendMM 100.63     LegendNANA
09:00 2.5 0.1 84   LegendMM LegendMM LegendMM 100.65     LegendNANA
10:00 2.9 -0.1 81   LegendMM LegendMM LegendMM 100.67     LegendNANA
11:00 3.4 -0.2 77   LegendMM LegendMM LegendMM 100.63     LegendNANA
12:00 4.2 1.2 81   LegendMM LegendMM LegendMM 100.58     LegendNANA
13:00 5.0 1.3 77   LegendMM LegendMM LegendMM 100.53     LegendNANA
14:00 4.4 1.1 79   LegendMM LegendMM LegendMM 100.53     LegendNANA
15:00 3.6 0.8 82   LegendMM LegendMM LegendMM 100.54     LegendNANA
16:00 3.7 0.9 82   LegendMM LegendMM LegendMM 100.54     LegendNANA
17:00 3.3 0.9 84   LegendMM LegendMM LegendMM 100.53     LegendNANA
18:00 3.2 0.8 84   LegendMM LegendMM LegendMM 100.57     LegendNANA
19:00 3.8 1.2 83   LegendMM LegendMM LegendMM 100.59     LegendNANA
20:00 4.2 1.4 82   LegendMM LegendMM LegendMM 100.59     LegendNANA
21:00 4.3 1.5 82   LegendMM LegendMM LegendMM 100.61     LegendNANA
22:00 4.3 1.5 82   LegendMM LegendMM LegendMM 100.61     LegendNANA
23:00 4.4 1.8 83   LegendMM LegendMM LegendMM 100.63     LegendNANA

Notes on Data Quality.

Legend

  • E = Estimated
  • M = Missing
  • NA = Not Available*
  • [empty] = Indicates an unobserved value
Date modified: